Location: Unspecified
(0.0000°N, 0.0000°E)
Time: 05:01:57
(UTC+00:00)

Tiros 1 despin weight - Pass Details

Date: 03 October 2020
Orbit: 594 x 641 km, 48.2° (Epoch: 28 October)

Event Time Altitude Azimuth Distance (km) Brightness Sun altitude
Rises 18:46:52 0° 316° (NW) 2,919 ? -14.5°
Reaches altitude 10° 18:49:12 10° 313° (NW) 2,016 ? -15.1°
Maximum altitude 18:53:49 66° 231° (SW) 695 ? -16.2°
Drops below altitude 10° 18:58:28 10° 149° (SSE) 2,026 ? -17.4°
Enters shadow 18:58:48 - 148° (SSE) 2,155 ? -17.4°
Sets 19:00:48 0° 146° (SE) 2,935 - -17.9°
